RH
21 21 21 21 20 18 12 8 7 7 8 8 8 8 8 9 9 9 10 10 10 11 11 11 12 12 13 13 13 13 14 14 13 11 10 10 11 11 11 13 15 17
20 20 21 20 19 16 11 8 8 8 9 9 9 9 9 10 10 9 9 9 10 11 11 12 12 12 12 12 13 14 14 14 13 11 10 10 11 11 13 15 18 21
19 18 18 17 15 12 9 8 9 9 10 11 10 10 9 9 9 9 10 10 10 11 11 11 12 12 12 12 13 14 14 14 12 11 10 10 11 13 15 18 21 23
18 16 14 13 10 10 9 9 10 10 11 11 10 10 10 9 10 9 10 10 10 11 11 11 12 12 11 12 13 14 14 14 13 12 11 11 12 14 17 20 22 23
18 15 13 11 9 10 11 11 11 10 11 12 12 12 11 11 11 11 11 11 11 11 12 12 12 12 12 12 13 14 14 14 13 12 11 12 13 16 19 20 21 22
19 18 15 13 10 10 11 11 12 12 12 13 13 14 14 13 14 13 13 12 12 12 12 12 12 12 12 13 13 14 14 14 13 12 12 12 14 16 18 18 18 18
20 20 19 17 14 13 13 13 14 15 15 16 16 16 16 16 16 15 14 13 12 12 12 12 12 12 12 13 13 14 14 14 13 12 12 13 14 15 15 15 14 15
23 23 22 21 20 19 18 18 18 18 18 18 19 19 19 18 17 15 15 13 12 12 12 12 12 12 12 13 13 14 14 14 13 12 13 13 13 13 13 13 15 21
23 24 25 25 25 25 24 23 22 21 21 20 20 21 20 18 16 15 15 13 12 12 12 12 12 12 12 13 13 14 14 14 13 12 12 12 13 13 13 15 21 28
21 21 22 23 24 24 25 24 24 23 22 22 21 19 18 16 15 15 14 13 12 12 12 12 12 12 12 12 13 14 14 14 13 12 12 12 13 13 15 21 28 30
21 21 21 21 20 21 22 21 22 21 20 19 18 17 16 16 15 15 15 14 13 12 12 12 12 12 12 12 13 13 13 13 12 12 12 13 13 14 20 28 29 29
22 22 21 21 20 19 19 19 19 18 18 17 17 16 16 16 16 15 15 14 13 13 12 12 11 12 12 12 13 13 13 13 12 12 12 13 13 18 26 29 28 28
22 22 22 21 21 20 19 19 18 18 18 18 17 17 17 17 16 15 15 14 14 13 12 12 12 12 12 12 13 13 13 13 12 13 13 13 16 24 29 28 26 28
23 23 23 22 23 22 21 20 20 20 20 19 19 19 18 17 16 16 15 15 14 14 13 13 12 12 12 12 13 13 13 12 13 13 12 14 21 28 30 27 26 28
25 25 25 24 24 24 24 23 22 21 21 21 20 20 19 18 18 17 17 16 16 15 14 14 13 12 12 13 13 12 13 12 13 13 13 18 26 31 28 25 26 29
27 27 27 27 27 27 27 26 25 24 24 23 22 22 21 20 19 19 18 18 17 16 16 15 14 13 13 13 12 12 12 13 13 12 15 23 30 30 28 26 26 29
28 29 30 31 31 30 30 30 29 29 28 27 25 25 24 23 22 21 20 20 19 17 16 15 14 13 13 12 12 12 13 13 13 13 18 27 31 30 28 26 26 29
30 30 32 33 33 34 34 34 33 32 31 30 29 28 26 25 24 23 23 22 20 17 16 15 14 13 12 12 12 13 13 13 12 15 22 29 30 29 28 26 26 29
33 33 34 34 34 35 36 36 36 36 34 33 31 30 29 28 27 26 25 24 21 18 16 15 14 13 12 13 13 13 13 13 12 18 26 30 30 30 29 28 28 31
34 33 34 35 36 36 36 37 38 38 37 36 35 32 31 29 29 28 27 25 21 19 17 16 14 13 13 14 14 14 14 13 14 22 29 30 30 30 30 32 33 35
35 34 33 34 35 36 36 37 38 39 39 38 37 35 33 31 30 29 28 25 22 20 19 17 14 13 14 15 15 14 14 14 18 26 30 29 29 30 31 34 36 36
35 35 34 33 32 33 34 34 35 37 38 39 38 36 34 31 30 29 27 25 22 20 19 17 15 15 15 16 15 15 14 15 21 29 30 29 29 30 31 34 36 36
32 33 35 34 32 31 30 29 28 29 31 34 36 36 34 31 29 28 25 22 20 18 17 15 14 15 16 16 16 15 14 16 22 28 30 30 29 30 31 33 35 36
29 30 33 36 35 32 30 28 27 25 24 26 28 31 32 31 29 26 23 20 18 16 15 14 15 16 16 16 16 15 14 16 22 26 28 29 30 30 31 33 35 36
29 29 30 34 36 36 34 31 29 27 24 23 23 24 26 27 26 23 20 18 16 15 14 14 15 16 16 16 15 15 15 17 21 24 27 29 30 31 32 35 36 37
32 30 30 30 32 35 37 37 35 32 29 26 25 24 23 23 22 21 19 17 15 15 14 15 16 17 16 16 16 16 16 18 19 21 24 27 29 30 32 36 38 37